"Pseudo-MPEC" for P21UiCm

Created 2024 May 21 19:22:05 UT using Find_Orb

Click here for an explanation of pseudo-MPECs

 
 Astrometry: 
     P21UiCm* C2024 05 07yQ;2mGCVf.7u47.Y9mDha+AAstrometryDf/Mjsj-LvI^iJ(y6j6F52
     P21UiCm  C2024 05 072$'@7Ag[/Nredacted;f*L,nyPgj7:@:R/dZ/!Jclickyhereg('F52
     P21UiCm  C2024 05 07-sN.eNJfor(4(+LVylpRU5f6k#MydGU8/@n^jvrbX7n*GGvqy,,fF52
     P21UiCm  C2024 05 07JB1hy^Ac+vU;qIS;F%$$Lc=s95MEAmp$8=b4[n06c[`w`AU8'[/TF51
     P21UiCm  C2024 05 07uD'@@Nj^R)U;=explanation6c''L=ABn[=Iy/*5?80ct*]HuA!$F51

Station data:
(F51) Pan-STARRS 1, Haleakala  (N20.707234 W156.255910)  US/Hawaii.
   Observers J. Bulger, T. Lowe, A. Schultz, M. Willman. Measurers K.
   Chambers, S. Chastel, T. de Boer, L. Denneau, J. Fairlamb, H. Flewelling,
   M. Huber, C.-C. Lin, E. Magnier, Y. Ramanjooloo, R. Wainscoat, R. Weryk.
   1.8-m Ritchey-Chrétien + CCD.
(F52) Pan-STARRS 2, Haleakala  (N20.707382 W156.255910)  US/Hawaii.
   Observers J. Bulger, T. Dukes, T. Lowe, A. Schultz, M. Willman. Measurers
   K. Chambers, S. Chastel, T. de Boer, L. Denneau, J. Fairlamb, H.
   Flewelling, M. Huber, C.-C. Lin, E. Magnier, Y. Ramanjooloo, R. Wainscoat,
   R. Weryk. 1.8-m Ritchey-Chrétien + CCD.

Orbital elements:  P21UiCm
   Perihelion 2023 Dec 16.20900 +/- 292 TT =  5:00:57 (JD 2460294.70900)
Epoch 2024 May  7.0 TT = JDT 2460437.5   Earth MOID: 0.0617   Ju: 0.2897
M  26.73369308 +/- 70               (J2000 ecliptic)             AutoNEOCP
n   0.18722254 +/- 0.132            Peri.  198.77797 +/- 70
a   3.02619767 +/- 1.43             Node   271.91826 +/- 38
e   0.7056352 +/- 0.201             Incl.   14.51125 +/- 23
P   5.26                   H 19.63  G  0.15   U 11.4  SR
q 0.89080586 +/- 0.57    Q 5.16158949 +/- 1.98
From 5 observations 2024 May 7 (79.9 min); mean residual 0".16
Residuals in arcseconds: 
240507 F52  .09+  .11-    240507 F52  .06-  .04+    240507 F51  .20-  .22+    
240507 F52  .06-  .11+    240507 F51  .24+  .26-    

Ephemerides (geocentric):
Date (UTC) HH   RA             Dec           delta  r     elong  mag " sig PA
---- --------  ------------   ------------  ------ ------ -----  --- --------
2024 05 21 19  13 43 47.657   -30 22 18.01  1.2483 2.1784 148.9 22.6 3176  27
2024 05 21 20  13 43 46.512   -30 21 38.43  1.2488 2.1788 148.8 22.6 3195  27
2024 05 21 21  13 43 45.371   -30 20 58.87  1.2494 2.1792 148.8 22.6 3213  27
2024 05 21 22  13 43 44.235   -30 20 19.34  1.2500 2.1796 148.8 22.6 3232  27
2024 05 21 23  13 43 43.102   -30 19 39.84  1.2505 2.1799 148.7 22.6 3251  26
2024 05 22 00  13 43 41.974   -30 19 00.36  1.2511 2.1803 148.7 22.6 3270  26
2024 05 22 01  13 43 40.850   -30 18 20.91  1.2516 2.1807 148.7 22.6 3289  26
2024 05 22 02  13 43 39.730   -30 17 41.49  1.2522 2.1810 148.6 22.6 3308  26
2024 05 22 03  13 43 38.615   -30 17 02.10  1.2527 2.1814 148.6 22.6 3327  26
2024 05 22 04  13 43 37.503   -30 16 22.74  1.2533 2.1818 148.6 22.6 3347  26
2024 05 22 05  13 43 36.396   -30 15 43.40  1.2539 2.1821 148.5 22.6 3366  26
2024 05 22 06  13 43 35.292   -30 15 04.09  1.2544 2.1825 148.5 22.6 3385  26
2024 05 22 07  13 43 34.193   -30 14 24.81  1.2550 2.1829 148.4 22.6 3405  25
2024 05 22 08  13 43 33.099   -30 13 45.55  1.2555 2.1833 148.4 22.6 3425  25
2024 05 22 09  13 43 32.008   -30 13 06.33  1.2561 2.1836 148.4 22.6 3444  25
2024 05 22 10  13 43 30.921   -30 12 27.13  1.2567 2.1840 148.3 22.6 3464  25
2024 05 22 11  13 43 29.839   -30 11 47.96  1.2572 2.1844 148.3 22.6 3484  25
2024 05 22 12  13 43 28.761   -30 11 08.81  1.2578 2.1847 148.3 22.6 3504  25
2024 05 22 13  13 43 27.687   -30 10 29.70  1.2584 2.1851 148.2 22.6 3524  25
2024 05 22 14  13 43 26.617   -30 09 50.61  1.2589 2.1855 148.2 22.6 3544  25
2024 05 22 15  13 43 25.551   -30 09 11.55  1.2595 2.1859 148.2 22.6 3564  24
2024 05 22 16  13 43 24.489   -30 08 32.52  1.2600 2.1862 148.1 22.6 3584  24
2024 05 22 17  13 43 23.431   -30 07 53.51  1.2606 2.1866 148.1 22.6 3604  24
2024 05 22 18  13 43 22.378   -30 07 14.54  1.2612 2.1870 148.1 22.6 3625  24
2024 05 22 19  13 43 21.329   -30 06 35.59  1.2617 2.1873 148.0 22.6 3645  24
2024 05 22 20  13 43 20.284   -30 05 56.67  1.2623 2.1877 148.0 22.6 3666  24
2024 05 22 21  13 43 19.243   -30 05 17.78  1.2629 2.1881 148.0 22.6 3686  24
2024 05 22 22  13 43 18.206   -30 04 38.92  1.2634 2.1884 147.9 22.6 3707  24
2024 05 22 23  13 43 17.173   -30 04 00.08  1.2640 2.1888 147.9 22.6 3728  23
2024 05 23 00  13 43 16.144   -30 03 21.27  1.2646 2.1892 147.9 22.6 3749  23
2024 05 23 01  13 43 15.120   -30 02 42.49  1.2651 2.1895 147.8 22.7 3770  23
2024 05 23 02  13 43 14.099   -30 02 03.74  1.2657 2.1899 147.8 22.7 3791  23
2024 05 23 03  13 43 13.083   -30 01 25.02  1.2663 2.1903 147.8 22.7 3812  23
2024 05 23 04  13 43 12.070   -30 00 46.32  1.2668 2.1907 147.7 22.7 3833  23
2024 05 23 05  13 43 11.062   -30 00 07.66  1.2674 2.1910 147.7 22.7 3854  23
2024 05 23 06  13 43 10.058   -29 59 29.02  1.2680 2.1914 147.7 22.7 3875  23
2024 05 23 07  13 43 09.058   -29 58 50.41  1.2685 2.1918 147.6 22.7 3897  23
2024 05 23 08  13 43 08.062   -29 58 11.83  1.2691 2.1921 147.6 22.7 3918  22
2024 05 23 09  13 43 07.070   -29 57 33.27  1.2697 2.1925 147.6 22.7 3940  22
2024 05 23 10  13 43 06.083   -29 56 54.75  1.2703 2.1929 147.5 22.7 3962  22
2024 05 23 11  13 43 05.099   -29 56 16.25  1.2708 2.1932 147.5 22.7 3983  22
2024 05 23 12  13 43 04.119   -29 55 37.78  1.2714 2.1936 147.5 22.7 4005  22
2024 05 23 13  13 43 03.144   -29 54 59.34  1.2720 2.1940 147.4 22.7 4027  22
2024 05 23 14  13 43 02.172   -29 54 20.93  1.2725 2.1944 147.4 22.7 4049  22
2024 05 23 15  13 43 01.205   -29 53 42.55  1.2731 2.1947 147.3 22.7 4071  22
2024 05 23 16  13 43 00.242   -29 53 04.19  1.2737 2.1951 147.3 22.7 4093  22
2024 05 23 17  13 42 59.283   -29 52 25.87  1.2743 2.1955 147.3 22.7 4116  22
2024 05 23 18  13 42 58.327   -29 51 47.57  1.2748 2.1958 147.2 22.7 4138  21